Hourly Data Report for May 02, 2020

STE-ANNE-DE-BELLEVUE 1
QUEBEC
Current Station Operator: ECCC - MSC

45°25'38.000" N
73°55'45.000" W
39.00 m
702FHL8
71377
WVQ

Download Data

Hourly Data (May 2020)
Hourly Data Report for May 2, 2020
TIME
LST
Temp Definition
°C
Dew Point Definition
°C
Rel Hum Definition
%
Precip. Amount Definition
mm

Wind Dir Definition
10's deg

Wind Spd Definition
km/h
Visibility Definition
km
Stn Press Definition
kPa
Hmdx Definition


Wind Chill Definition


Weather Definition


00:00 6.6 1.8 72 0.0 27 9   100.84     LegendNANA
01:00 5.6 1.8 77 0.0 27 9   100.82     LegendNANA
02:00 5.5 1.7 76 0.0 29 8   100.80     LegendNANA
03:00 5.5 1.9 77 0.0 29 11   100.83     LegendNANA
04:00 5.6 1.7 76 0.0 30 11   100.84     LegendNANA
05:00 4.6 1.7 81 0.0 30 2   100.88     LegendNANA
06:00 7.0 3.0 76 0.0 28 7   100.96     LegendNANA
07:00 8.4 3.3 70 0.0 29 8   100.99     LegendNANA
08:00 10.1 2.3 58 0.0 29 12   101.00     LegendNANA
09:00 12.1 2.1 50 0.0 30 14   100.96     LegendNANA
10:00 13.6 0.5 41 0.0 28 9   100.92     LegendNANA
11:00 14.6 2.4 44 0.0 27 10   100.87     LegendNANA
12:00 15.6 1.5 38 0.0 27 12   100.77     LegendNANA
13:00 16.6 2.0 37 0.0 24 12   100.69     LegendNANA
14:00 17.1 2.2 37 0.0 26 10   100.62     LegendNANA
15:00 18.1 2.2 35 0.0 24 14   100.53     LegendNANA
16:00 18.0 2.9 36 0.0 28 13   100.48     LegendNANA
17:00 18.1 3.5 38 0.0 25 14   100.44     LegendNANA
18:00 17.1 5.0 45 0.0 23 13   100.43     LegendNANA
19:00 16.5 4.6 45 0.0 23 12   100.40     LegendNANA
20:00 15.5 4.6 48 0.0 24 11   100.43     LegendNANA
21:00 14.9 3.7 47 0.0 25 14   100.47     LegendNANA
22:00 13.5 5.5 58 0.0 27 26   100.51     LegendNANA
23:00 11.9 7.1 72 0.0 25 15   100.44     LegendNANA

Notes on Data Quality.

Legend

  • E = Estimated
  • M = Missing
  • NA = Not Available*
  • [empty] = Indicates an unobserved value
Date modified: